Weather History for KABE - March, 2013

Change the Weather History Date:

Friday, March 1, 2013

  Actual Average Record
Temperature  
Mean Temperature 35 °F 34 °F  
Max Temperature 43 °F 44 °F 67 °F (1972)
Min Temperature 27 °F 25 °F -5 °F (1934)
Degree Days  
Heating Degree Days 30 31  
Month to date heating degree days 30 31  
Since 1 July heating degree days 3985 4340  
Cooling Degree Days 0 0  
Month to date cooling degree days 0 0  
Year to date cooling degree days 0 0  
Moisture  
Dew Point 27 °F    
Average Humidity 71    
Maximum Humidity 92    
Minimum Humidity 49    
Precipitation  
Precipitation T in 0.10 in 1.12 in (1939)
Month to date precipitation T 0.10  
Year to date precipitation 6.06 5.83  
Snow  
Snow 0.00 in 0.20 in 8.80 in (1941)
Month to date snowfall 0.0 0.2  
Since 1 July snowfall 16.9 27.2  
Snow Depth 0.00 in    
Sea Level Pressure  
Sea Level Pressure 29.73 in    
Wind  
Wind Speed 9 mph (WNW)    
Max Wind Speed 16 mph    
Max Gust Speed 23 mph    
Visibility 10 miles    
Events Rain    
T = Trace of Precipitation, MM = Missing Value Source: NWS Daily Summary

Daily Weather History Graph

Daily Weather History Graph

Search for Another Location

Airport or City:

Trip Planner

Search our weather history database for the weather conditions in past years. The results will help you decide how hot, cold, wet, or windy it might be!

Date:

Astronomy

Mar. 01, 2013 Rise Set
Actual Time 6:35 AM EST 5:53 PM EST
Civil Twilight 6:07 AM EST 6:20 PM EST
Nautical Twilight 5:36 AM EST 6:52 PM EST
Astronomical Twilight 5:04 AM EST 7:24 PM EST
Moon 10:25 PM EST (3/1) 8:19 AM EST (3/1)
Length of Visible Light 12h 12m
Length of Day
11h 18m
Waning Gibbous, 83% of the Moon is Illuminated
Mar 1
Waning Gibbous
Mar 4
Last Quarter
Mar 11
New
Mar 19
First Quarter
Mar 27
Full

Hourly Weather History & Observations

Time (EST) Temp. Windchill Dew Point Humidity Pressure Visibility Wind Dir Wind Speed Gust Speed Precip Events Conditions
12:51 AM 28.9 °F 25.2 °F 27.0 °F 92% 29.66 in 10.0 mi SW 3.5 mph - N/A   Scattered Clouds
1:00 AM 28.4 °F 23.3 °F 26.6 °F 93% 29.65 in 10.0 mi SW 4.6 mph - N/A   Mostly Cloudy
1:31 AM 30.2 °F 24.3 °F 28.4 °F 93% 29.65 in 10.0 mi SW 5.8 mph - N/A   Mostly Cloudy
1:51 AM 30.9 °F 26.2 °F 28.9 °F 92% 29.66 in 10.0 mi SW 4.6 mph - N/A   Mostly Cloudy
2:51 AM 30.0 °F 25.2 °F 28.0 °F 92% 29.67 in 10.0 mi West 4.6 mph - N/A   Scattered Clouds
3:05 AM 30.2 °F 24.3 °F 28.4 °F 93% 29.66 in 10.0 mi SSW 5.8 mph - N/A   Mostly Cloudy
3:51 AM 32.0 °F 28.7 °F 28.9 °F 88% 29.68 in 10.0 mi West 3.5 mph - N/A   Overcast
4:17 AM 33.8 °F 29.6 °F 28.4 °F 81% 29.67 in 10.0 mi West 4.6 mph - N/A   Mostly Cloudy
4:51 AM 33.1 °F 28.7 °F 28.0 °F 82% 29.69 in 10.0 mi WSW 4.6 mph - N/A   Overcast
5:51 AM 34.0 °F 31.0 °F 27.0 °F 75% 29.70 in 10.0 mi WNW 3.5 mph - N/A   Clear
6:51 AM 36.0 °F 32.1 °F 28.9 °F 76% 29.71 in 10.0 mi West 4.6 mph - N/A   Overcast
7:51 AM 37.0 °F 31.6 °F 28.9 °F 73% 29.73 in 10.0 mi WNW 6.9 mph - N/A   Overcast
8:43 AM 39.2 °F 31.2 °F 28.4 °F 65% 29.73 in 10.0 mi NNW 13.8 mph 20.7 mph N/A   Mostly Cloudy
8:51 AM 39.0 °F 30.6 °F 28.9 °F 67% 29.74 in 10.0 mi NW 15.0 mph 20.7 mph N/A   Overcast
9:51 AM 39.9 °F 34.5 °F 28.9 °F 65% 29.75 in 10.0 mi NW 8.1 mph - N/A   Overcast
10:51 AM 39.0 °F 32.3 °F 28.0 °F 65% 29.76 in 10.0 mi NW 10.4 mph - N/A   Overcast
11:51 AM 41.0 °F 33.5 °F 26.1 °F 55% 29.76 in 10.0 mi NW 13.8 mph 20.7 mph N/A   Overcast
12:51 PM 41.0 °F 33.5 °F 27.0 °F 57% 29.75 in 10.0 mi NNW 13.8 mph - 0.00 in Rain Light Rain
1:51 PM 42.1 °F 35.7 °F 26.1 °F 53% 29.75 in 10.0 mi NNW 11.5 mph - 0.00 in   Overcast
2:51 PM 42.1 °F 34.9 °F 25.0 °F 51% 29.75 in 10.0 mi NNW 13.8 mph - N/A   Overcast
3:51 PM 42.1 °F 36.6 °F 25.0 °F 51% 29.75 in 10.0 mi NNW 9.2 mph - N/A   Overcast
4:51 PM 39.9 °F 33.4 °F 25.0 °F 55% 29.76 in 10.0 mi NW 10.4 mph - N/A   Overcast
5:51 PM 37.9 °F 28.9 °F 26.1 °F 62% 29.78 in 10.0 mi NNW 16.1 mph 23.0 mph N/A   Overcast
6:51 PM 37.0 °F 30.4 °F 25.0 °F 62% 29.81 in 10.0 mi NNW 9.2 mph 17.3 mph N/A   Overcast
7:51 PM 37.0 °F 28.9 °F 25.0 °F 62% 29.82 in 10.0 mi NNW 12.7 mph 18.4 mph N/A   Overcast
8:51 PM 36.0 °F 27.1 °F 25.0 °F 64% 29.83 in 10.0 mi NNW 13.8 mph 19.6 mph N/A   Overcast
9:51 PM 35.1 °F 27.4 °F 25.0 °F 67% 29.83 in 10.0 mi NNW 10.4 mph - N/A   Overcast
10:51 PM 34.0 °F 27.2 °F 23.0 °F 64% 29.84 in 10.0 mi NNW 8.1 mph - N/A   Overcast
11:51 PM 34.0 °F 26.6 °F 23.0 °F 64% 29.84 in 10.0 mi North 9.2 mph - N/A   Overcast